Regional Weather Roundup
Issued by NWS

Home | Current Version | Previous Version | Text Only | Print | Product List | Glossary On
Versions: 1 2 3 4 5 6 7 8 9 10 11 12 13 14 15 16 17 18 19 20 21 22 23 24 25 26 27 28 29 30 31 32 33 34 35 36 37 38 39 40 41 42 43 44 45 46 47 48 49 50
000
ASUS45 KTFX 010619
RWRMT
MONTANA REGIONAL WEATHER ROUNDUP
NATIONAL WEATHER SERVICE GREAT FALLS MT
1200 AM MDT TUE SEP 01 2015

NOTE: "FAIR" INDICATES FEW OR NO CLOUDS BELOW 12000 FEET WITH NO
SIGNIFICANT WEATHER AND/OR OBSTRUCTIONS TO VISIBILITY.

MTZ001>007-043-010700-
WEST OF THE DIVIDE

CITY           SKY/WX    TMP DP  RH WIND       PRES   REMARKS
KALISPELL      PTCLDY    51  42  71 SW3       29.87F
MISSOULA       CLEAR     51  42  71 MISG      29.94R
BUTTE          CLEAR     50  39  66 E6        30.02R
MULLAN PASS    CLEAR     48  40  73 VRB7      30.01S
DEER LODGE       N/A     52  37  58 CALM      30.02R
EUREKA           N/A     59  45  58 S8        29.86
HAMILTON         N/A     54  43  66 S5        29.95S
LIBBY            N/A     54  45  71 CALM      29.86S
PLAINS           N/A     52  40  63 W1        29.91S
RONAN            N/A     50  43  77 CALM      29.96S
$$

MTZ008-052>055-010700-
SOUTHWEST MONTANA

CITY           SKY/WX    TMP DP  RH WIND       PRES   REMARKS
BOZEMAN        PTCLDY    52  40  63 CALM      29.94R
DILLON         CLEAR     57  35  43 SW8       29.97R
W YELLOWSTONE  CLEAR     39  28  65 CALM      30.13S
THREE FORKS      N/A     52  45  77 CALM      29.93S
TWIN BRIDGES     N/A     62  30  30 NE3       29.96R
$$

MTZ009-010-012-014-046-048-049-054-010700-
EAST SLOPES AND CENTRAL MONTANA

CITY           SKY/WX    TMP DP  RH WIND       PRES   REMARKS
CUT BANK       CLOUDY    54  38  54 SW12      29.84F
GREAT FALLS    MOCLDY    59  37  44 S7        29.87F
MALMSTROM AFB  PTCLDY    60  37  42 S9        29.87S
HELENA         CLEAR     63  39  41 SW6       29.92R
CONRAD           N/A     52  40  63 W3        29.89S
$$

MTZ011-013-016-021-045-047-050-051-010700-
NORTH CENTRAL MONTANA

CITY           SKY/WX    TMP DP  RH WIND       PRES   REMARKS
HAVRE          MOCLDY    55  38  52 S12       29.81F
LEWISTOWN      PTCLDY    53  40  61 SE6       29.93S
N BAR RANCH      N/A     52  39  62 W6        29.97F
CHINOOK          N/A     55  39  54 CALM      29.81F
FORT BENTON      N/A     55  36  47 CALM      29.85S
$$

MTZ017>020-022>027-061-062-010700-
NORTHEAST MONTANA

CITY           SKY/WX    TMP DP  RH WIND       PRES   REMARKS
GLASGOW        PTCLDY    55  46  71 E6        29.84R
JORDAN           N/A     54  36  50 CALM      29.88R
SIDNEY         CLEAR     50  39  66 CALM      29.87S
WOLF POINT     CLEAR     50  43  77 VRB5      29.85S
MALTA            N/A     55  44  66 CALM      29.81S
PLENTYWOOD       N/A     57  39  51 E6        29.84F
SCOBEY           N/A     56  38  50 S2        29.84S
$$

MTZ028>42-056>058-010700-
SOUTHCENTRAL AND SOUTHEAST MONTANA

CITY           SKY/WX    TMP DP  RH WIND       PRES   REMARKS
BAKER          PTCLDY    64  51  62 S16       29.91F
BILLINGS       PTCLDY    70  32  24 SE5       29.90S
LIVINGSTON     CLEAR     70  32  24 S10G22    29.93S
MILES CITY     CLEAR     65  40  39 NE7       29.88S
EKALAKA          N/A     62  51  67 SE9       29.92F
FORSYTH          N/A     63  37  39 E6        29.86F
LAUREL           N/A     65  33  30 N1        29.90S
ROUNDUP          N/A     62  31  31 CALM      29.83S
$$

REGIONAL REPORTS...DAKOTAS

CITY           SKY/WX    TMP DP  RH WIND       PRES   REMARKS
WILLISTON      CLEAR     54  42  64 CALM      29.87S
MINOT            N/A     61  45  55 SW10      29.85R
DICKINSON      PTCLDY    55  42  61 S7        29.89S
BEACH          MOCLDY    50  46  87 CALM      29.92S
CROSBY           N/A     55  43  62 S10       29.84F
TIOGA            N/A     48  45  87 W7        29.90S
BISMARCK       CLEAR     57  51  80 SE5       29.90S
GRAND FORKS      N/A     58  55  90 SW3       29.85S
FARGO            N/A     63  60  90 S3        29.88S FOG
BUFFALO SD       N/A     60  52  74 E9        29.86F
RAPID CITY     PTCLDY    61  56  83 CALM      29.93F
$$

REGIONAL REPORTS...WYOMING/IDAHO/WASHINGTON

CITY           SKY/WX    TMP DP  RH WIND       PRES   REMARKS
GILLETTE       CLEAR     62  52  69 SE5       29.93S
SHERIDAN       CLEAR     52  45  77 CALM      29.94S
BUFFALO WY     CLEAR     62  40  44 W7        30.00F
CODY           CLEAR     68  28  22 SW8       29.98F
YELLOWSTONE LA   N/A     38  27  64 NW3       30.23S
IDAHO FALLS    PTCLDY    60  33  36 SW8       30.01S
SALMON         PTCLDY    54  39  58 CALM      29.93R
BOISE          CLEAR     66  42  41 CALM      29.90S
SPOKANE        MOCLDY    60  45  57 S7        29.87S
$$

REGIONAL REPORTS...ALBERTA

CITY           SKY/WX    TMP DP  RH WIND       PRES   REMARKS
EDMONTON       CLEAR     52  39  62 N8        29.56F
CALGARY        MOCLDY    59  37  44 W5        29.67F
LETHBRIDGE     CLEAR     54  39  58 SW13      29.76F
MEDICINE HAT   CLEAR     59  41  51 S14       29.74S
WATERTON GATE    N/A     57  37  47 SW9G17      N/A
CARDSTON         N/A     52  37  58 S2          N/A
MILK RIVER       N/A     57  39  51 SW15        N/A
ONEFOUR          N/A     59  37  44 W9          N/A
$$

REGIONAL REPORTS...SASKATCHEWAN

CITY           SKY/WX    TMP DP  RH WIND       PRES   REMARKS
SWIFT CURRENT  CLEAR     57  41  54 SW14      29.76S
REGINA         CLOUDY    54  48  82 SW6       29.76R
SASKATOON      MOCLDY    55  43  62 S7        29.68S
CYPRESS HILLS    N/A     54  34  47 SE2         N/A
VAL MARIE        N/A     45  39  81 NE2         N/A
ROCKGLEN         N/A     52  43  71 SW9         N/A
ASSINIBOIA       N/A     46  39  76 S5          N/A
$$


USA.gov is the U.S. government's official web portal to all federal, state and local government web resources and services.